This demonstration page uses our WeatherBlox Daily Observations layout. Learn more.

38.88101, -77.10428

Hourly Observations for October 11, 2016

Temp ( °F °C ) Dew Point ( °F °C ) Humidity (%) Winds ( mph kmh ) Pressure ( in mb ) Visibility ( mi km ) Precip ( " mm )
12:52 am 00:52 Clear 52 11.1 43 6.1 72 72 NNW 5 7 30.42 1030 10 16.09344 0 0
1:52 am 01:52 Clear 50 10 44 6.7 80 80 N 6 9 30.42 1030 10 16.09344 0 0
2:52 am 02:52 Clear 50 10 44 6.7 80 80 NE 6 9 30.42 1030 10 16.09344 0 0
3:52 am 03:52 Clear 49 9.4 41 5 74 74 NNW 6 9 30.42 1030 10 16.09344 0 0
4:52 am 04:52 Clear 48 8.9 41 5 77 77 N 6 9 30.42 1030 10 16.09344 0 0
5:52 am 05:52 Mostly Clear 46 7.8 41 5 83 83 N 6 9 30.42 1030 10 16.09344 0 0
6:52 am 06:52 Mostly Clear 46 7.8 41 5 83 83 NNW 5 7 30.45 1031 10 16.09344 0 0
7:52 am 07:52 Mostly Sunny 49 9.4 42 5.6 77 77 N 6 9 30.45 1031 10 16.09344 0 0
8:52 am 08:52 Mostly Sunny 53 11.7 44 6.7 72 72 N 5 7 30.48 1032 10 16.09344 0 0
9:52 am 09:52 Partly Cloudy 55 12.8 43 6.1 64 64 ENE 7 11 30.48 1032 10 16.09344 0 0
10:52 am 10:52 Mostly Cloudy 58 14.4 44 6.7 60 60 NE 5 7 30.5 1033 10 16.09344 0 0
11:52 am 11:52 Mostly Cloudy 61 16.1 43 6.1 52 52 E 3 6 30.48 1032 10 16.09344 0 0
12:52 pm 12:52 Mostly Cloudy 63 17.2 38 3.3 40 40 Calm 30.45 1031 10 16.09344 0 0
1:52 pm 13:52 Cloudy 66 18.9 41 5 40 40 Calm 30.42 1030 10 16.09344 0 0
2:52 pm 14:52 Cloudy 68 20 42 5.6 39 39 Calm 30.39 1029 10 16.09344 0 0
3:52 pm 15:52 Mostly Cloudy 67 19.4 41 5 39 39 SE 3 6 30.39 1029 10 16.09344 0 0
4:52 pm 16:52 Mostly Cloudy 66 18.9 43 6.1 43 43 Calm 30.39 1029 10 16.09344 0 0
5:52 pm 17:52 Mostly Cloudy 64 17.8 49 9.4 58 58 ESE 9 15 30.39 1029 10 16.09344 0 0
6:52 pm 18:52 Mostly Cloudy 62 16.7 48 8.9 60 60 ESE 7 11 30.39 1029 10 16.09344 0 0
7:52 pm 19:52 Mostly Cloudy 60 15.6 49 9.4 67 67 SE 3 6 30.39 1029 10 16.09344 0 0
8:52 pm 20:52 Mostly Cloudy 59 15 50 10 72 72 SSW 5 7 30.39 1029 10 16.09344 0 0
9:52 pm 21:52 Mostly Cloudy 58 14.4 50 10 75 75 ESE 8 13 30.39 1029 10 16.09344 0 0
10:52 pm 22:52 Mostly Clear 55 12.8 49 9.4 80 80 Calm 30.39 1029 10 16.09344 0 0
11:52 pm 23:52 Mostly Clear 56 13.3 48 8.9 75 75 Calm 30.39 1029 10 16.09344 0 0

Powered by AerisWeather